Location: Waco, TX
(31.5480°N, 97.1670°W)
Time: 12:44:00
(UTC-05:00)

ISS - Pass Details

Date: 21 September 2018
Orbit: 403 x 408 km, 51.6° (Epoch: 26 September)

Event Time Altitude Azimuth Distance (km) Brightness Sun altitude
Rises 20:20:42 0° 225° (SW) 2,318 0.6 -12.3°
Reaches altitude 10° 20:22:47 10° 225° (SW) 1,460 -0.5 -12.8°
Maximum altitude 20:26:04 87° 317° (NW) 411 -3.9 -13.5°
Enters shadow 20:28:52 14° 44° (NE) 1,270 -1.6 -14.1°
Drops below altitude 10° 20:29:21 10° 44° (NE) 1,467 - -14.2°
Sets 20:31:26 0° 45° (NE) 2,329 - -14.6°
